This is the latest recevied weather packets stored in our database for station/object KK7DS. If no packets are shown the sender has not sent any weather packets the latest 1 day(s).
| Time | Temp. | Humidity | Pressure | Rain* | Wind** | Luminosity | Snow |
|---|---|---|---|---|---|---|---|
| 1778010309 | 15.56° C | 80% | 1017.1 hPa | 0 mm | 0 m/s | - | - |
| 1778009778 | 15.56° C | 78% | 1017.1 hPa | 0 mm | 0.45 m/s, 101° | - | - |
| 1778009192 | 15° C | 82% | 1017.1 hPa | 0 mm | 0 m/s | - | - |
| 1778008694 | 13.89° C | 84% | 1017.1 hPa | 0 mm | 0 m/s | - | - |
| 1778007637 | 13.89° C | 84% | 1017.1 hPa | 0 mm | 0.45 m/s, 215° | - | - |
| 1778007055 | 13.89° C | 85% | 1017.1 hPa | 0 mm | 0.45 m/s, 234° | - | - |
| 1778006565 | 13.33° C | 85% | 1017.2 hPa | 0 mm | 0.45 m/s, 147° | - | - |
| 1778006015 | 13.33° C | 85% | 1017.2 hPa | 0 mm | 0 m/s | - | - |
| 1778005494 | 13.33° C | 86% | 1017.2 hPa | 0 mm | 0.45 m/s, 230° | - | - |
| 1778005005 | 13.33° C | 86% | 1017.1 hPa | 0 mm | 0.45 m/s, 220° | - | - |
| 1778004435 | 13.33° C | 86% | 1017.1 hPa | 0 mm | 0.89 m/s, 246° | - | - |
| 1778003835 | 13.33° C | 86% | 1017.1 hPa | 0 mm | 0.45 m/s, 227° | - | - |
| 1778003240 | 12.78° C | 86% | 1017.1 hPa | 0 mm | 0.45 m/s, 220° | - | - |
| 1778002227 | 13.33° C | 86% | 1017 hPa | 0 mm | 0.89 m/s, 212° | - | - |
| 1778001690 | 12.78° C | 86% | 1016.9 hPa | 0 mm | 0 m/s | - | - |
| 1778001093 | 12.78° C | 87% | 1016.9 hPa | 0 mm | 0.45 m/s, 219° | - | - |
| 1778000590 | 12.78° C | 87% | 1016.8 hPa | 0 mm | 0 m/s | - | - |
| 1778000055 | 12.22° C | 89% | 1016.7 hPa | 0 mm | 0 m/s | - | - |
| 1777999458 | 12.22° C | 89% | 1016.7 hPa | 0 mm | 0.45 m/s, 239° | - | - |
| 1777998932 | 12.22° C | 89% | 1016.6 hPa | 0 mm | 0.45 m/s, 246° | - | - |
| 1777998380 | 12.22° C | 89% | 1016.6 hPa | 0 mm | 0.45 m/s, 208° | - | - |
| 1777997790 | 12.22° C | 89% | 1016.5 hPa | 0 mm | 0.89 m/s, 215° | - | - |
| 1777997283 | 11.67° C | 91% | 1016.5 hPa | 0 mm | 0 m/s | - | - |
| 1777996730 | 11.67° C | 91% | 1016.5 hPa | 0 mm | 0.45 m/s, 209° | - | - |
| 1777996160 | 11.11° C | 92% | 1016.5 hPa | 0 mm | 0.45 m/s, 227° | - | - |
* Rain latest hour (hover to see other rain measurements)
** Current wind speed in m/s (hover to see current wind gust speed)